Location: Wellington
(41.3000°S, 174.8000°E)
Time: 19:46:41
(UTC+13:00)

ISS - Visible Passes

Search period start: 26 September 2023 00:00
Search period end: 06 October 2023 00:00
Orbit: 413 x 422 km, 51.6° (Epoch: 25 September)

Date Brightness Start Highest point End Pass type
(mag) Time Alt. Az. Time Alt. Az. Time Alt. Az.
26 Sep -3.0 05:26:15 39° SW 05:26:27 39° SSW 05:29:44 10° SE visible
27 Sep -1.6 04:40:02 26° SE 04:40:02 26° SE 04:41:44 10° SE visible
27 Sep -1.6 06:13:07 10° WSW 06:15:37 18° SSW 06:18:07 10° SSE visible
28 Sep -2.0 05:26:39 21° SW 05:27:16 22° SSW 05:30:04 10° SE visible
29 Sep -1.4 04:40:16 22° SSE 04:40:16 22° SSE 04:42:01 10° SE visible
29 Sep -1.2 06:14:29 10° SW 06:16:33 15° S 06:18:38 10° SSE visible
30 Sep -0.1 03:53:50 10° SE 03:53:50 10° SE 03:53:55 10° SE visible
30 Sep -1.4 05:26:45 13° SW 05:28:05 16° S 05:30:20 10° SSE visible
01 Oct -1.3 04:40:15 18° S 04:40:15 18° S 04:42:07 10° SSE visible
01 Oct -1.1 06:15:13 10° SSW 06:17:22 15° S 06:19:31 10° SE visible
02 Oct -0.2 03:53:44 11° SSE 03:53:44 11° SSE 03:53:56 10° SE visible
02 Oct -1.1 05:26:46 10° SW 05:28:48 15° S 05:30:51 10° SE visible
03 Oct -1.1 04:40:04 15° S 04:40:12 15° S 04:42:18 10° SSE visible
03 Oct -1.3 06:15:20 10° SSW 06:17:58 20° SSE 06:20:34 10° ESE visible
04 Oct -0.3 03:53:29 12° SSE 03:53:29 12° SSE 03:53:52 10° SSE visible
04 Oct -1.1 05:27:02 10° SSW 05:29:22 17° S 05:31:42 10° SE visible
05 Oct -1.1 04:39:48 14° SSW 04:40:42 15° S 04:42:49 10° SE visible
05 Oct -2.0 06:15:06 10° SW 06:18:15 32° SSE 06:21:23 10° E visible
